Wind_Speed
4 4 4 5 5 5 5 5 6 8 9 9 9 8 9 10 11 11 12 12 13 14 14 14 13 13 13 12 11 10 10 10 10 9 7 6 6 5 4 4 3 3 4
4 4 5 6 6 6 7 8 8 9 9 9 10 10 10 11 10 11 13 13 13 13 14 13 12 12 12 12 11 10 10 9 9 9 8 7 6 6 4 4 3 3 4
4 5 6 7 7 8 9 10 11 10 10 10 11 11 11 11 10 11 12 13 14 14 13 13 12 12 12 12 10 10 10 9 9 8 8 7 7 6 5 4 4 4 3
5 6 7 7 8 9 11 11 11 11 11 11 11 12 12 11 10 11 12 12 13 13 13 13 12 12 11 10 10 9 9 9 8 7 7 7 6 6 5 4 3 4 4
6 7 8 9 9 9 10 11 11 11 11 11 12 11 12 11 11 11 12 13 13 13 12 12 12 11 10 9 9 8 8 8 7 6 6 6 6 6 5 4 3 3 3
7 8 9 9 10 10 10 11 11 11 11 12 12 11 11 11 12 12 13 13 13 12 12 11 11 10 9 8 7 7 7 7 6 6 5 5 5 4 3 3 3 3 3
8 8 9 10 10 10 11 11 11 12 12 12 12 11 11 12 12 12 12 12 12 11 11 10 10 9 8 7 7 6 6 5 5 5 5 4 4 3 3 2 2 2 2
10 10 11 11 11 12 12 12 12 12 12 12 12 12 11 12 12 11 11 11 11 10 10 10 9 8 7 7 6 6 5 4 4 4 4 3 3 3 2 1 1 1 1
11 10 11 12 13 12 12 12 12 13 12 12 12 12 12 12 12 11 10 10 10 9 9 8 8 7 6 6 6 5 5 4 3 3 2 2 2 2 2 1 1 0 1
12 12 12 12 13 13 13 12 13 12 12 11 12 12 12 11 11 10 10 9 9 8 8 7 6 6 5 5 5 4 4 3 2 2 2 1 1 1 1 1 1 1 2
12 12 12 12 12 13 13 12 12 12 11 11 11 11 10 10 10 9 9 8 8 7 7 7 6 5 5 4 4 4 3 2 1 1 1 1 1 2 2 2 2 3 4
11 11 12 12 12 12 13 12 12 12 11 10 9 9 9 9 9 8 8 8 7 7 6 6 6 5 4 4 4 3 2 1 1 1 1 1 2 3 3 4 4 4 5
10 10 11 11 11 11 12 12 11 11 11 10 9 9 9 9 8 7 7 7 6 6 6 5 4 4 4 3 3 2 1 1 1 2 2 2 3 4 4 5 5 6 6
10 10 10 11 10 11 11 11 11 10 10 10 9 8 9 9 8 7 6 6 6 5 5 4 3 3 3 2 2 1 1 2 2 3 3 3 4 4 5 5 6 6 7
11 11 11 11 11 11 11 11 10 10 10 9 8 8 8 8 7 6 6 6 5 4 4 3 2 1 1 1 1 1 2 2 3 4 5 5 5 5 6 7 7 7 8
10 11 11 11 10 10 10 9 9 9 8 8 8 8 7 7 7 5 5 4 4 3 3 2 1 0 0 0 1 2 3 3 4 5 6 6 6 7 8 8 8 8 9
10 10 10 10 9 9 9 8 8 7 7 7 7 7 7 6 5 5 4 4 3 3 2 1 1 0 1 1 2 3 4 4 5 6 6 7 7 8 8 9 9 9 9
10 10 10 9 9 8 8 7 7 7 6 6 6 6 6 5 4 5 4 3 3 2 1 1 1 1 2 3 3 4 5 6 6 6 7 7 8 9 9 9 10 10 10
10 10 9 9 8 8 8 7 6 6 6 6 6 5 4 4 4 3 4 4 3 2 1 2 2 2 3 3 4 5 6 6 7 7 8 8 8 9 10 10 10 10 11
10 10 10 10 9 8 8 8 7 6 6 6 6 5 4 4 4 4 3 3 2 2 2 3 3 3 3 4 5 6 6 7 8 9 9 9 9 10 11 11 11 11 11
9 9 9 10 10 9 9 9 8 7 6 6 5 4 4 4 3 3 2 2 2 3 3 4 4 4 5 5 5 6 7 7 8 9 9 10 10 11 12 12 12 12 12
8 9 8 9 9 9 9 10 9 8 7 6 5 5 4 4 3 3 2 2 3 3 4 5 5 5 6 6 7 7 8 8 8 9 10 10 11 12 12 12 12 12 13
7 7 8 8 8 8 9 9 8 7 6 5 5 4 4 3 3 2 1 2 3 4 5 5 6 7 7 7 8 8 9 9 10 10 11 12 12 13 13 12 12 12 13
6 7 7 8 8 8 7 7 7 7 6 5 4 3 3 3 3 2 2 2 3 5 5 6 7 8 8 8 9 9 10 10 10 11 12 12 13 13 13 13 13 13 14
4 5 6 6 6 7 7 7 7 7 6 5 4 4 4 3 3 2 3 3 5 6 6 7 8 9 9 9 10 10 11 11 12 12 12 13 13 14 14 14 14 14 14
3 4 4 4 5 5 5 5 6 6 5 4 4 3 3 3 3 3 4 5 6 6 7 8 9 10 10 10 11 11 12 12 13 13 13 14 14 14 14 14 14 14 14
Wind_Direction
84 81 72 72 67 69 68 82 91 94 97 102 107 108 108 118 119 119 120 120 122 125 127 129 129 126 125 124 124 124 126 128 132 129 131 136 136 135 136 134 127 122 114
80 86 80 72 72 69 78 94 102 104 103 101 103 103 108 118 121 124 121 127 125 129 132 131 128 124 122 121 120 122 126 127 124 124 124 127 128 125 125 127 119 119 116
79 84 84 81 81 80 88 98 104 105 108 104 103 105 110 117 118 120 125 127 127 129 133 131 129 126 124 123 121 121 120 122 120 119 121 122 119 116 116 116 115 112 114
85 87 91 90 91 92 93 98 104 105 108 106 105 108 110 114 116 120 124 125 127 126 126 127 128 127 127 127 121 116 118 117 118 118 121 119 117 117 119 116 114 112 107
93 90 94 98 98 102 100 100 104 107 107 108 108 110 111 113 115 120 123 122 123 120 121 124 126 128 129 126 119 114 121 120 118 119 122 122 121 122 119 110 112 113 111
99 97 98 101 105 109 106 103 104 106 106 109 108 109 111 111 114 118 120 120 120 119 120 122 121 121 122 121 120 121 121 120 118 117 119 119 121 122 119 111 108 106 115
97 97 100 102 110 109 105 106 105 108 107 109 109 109 113 116 118 118 117 117 118 116 116 118 117 119 123 124 125 125 123 124 121 118 115 113 114 112 109 105 105 107 114
95 94 98 103 105 105 105 105 105 108 109 107 107 107 109 112 115 116 117 117 116 114 113 114 115 117 120 121 122 121 117 114 115 114 108 108 104 93 80 84 107 120 135
95 98 100 98 99 101 103 105 109 108 110 110 108 107 110 111 111 113 117 119 116 114 116 115 112 113 114 116 117 117 111 106 111 113 102 98 94 73 57 59 47 300 252
93 98 98 95 97 100 102 103 105 107 109 110 110 108 109 111 111 112 116 119 115 114 119 121 119 117 114 116 114 111 109 100 98 94 90 75 64 41 33 350 296 283 270
88 93 96 95 97 100 102 104 105 105 107 108 109 109 109 111 113 113 116 122 121 123 126 128 127 122 118 115 114 114 109 97 84 57 25 357 330 319 308 298 286 278 269
88 91 95 95 96 101 104 105 106 104 106 108 108 109 110 111 114 116 117 123 126 130 133 133 130 125 118 111 113 118 111 100 50 6 339 308 300 300 300 297 281 275 272
91 95 97 98 98 102 106 108 106 104 103 104 107 108 110 111 114 115 117 122 128 132 131 130 122 119 120 123 117 102 83 20 335 322 328 312 301 303 303 296 288 278 276
94 100 103 103 103 105 107 108 108 106 105 106 108 114 115 113 113 112 117 125 130 131 126 121 117 115 120 131 114 71 319 313 321 310 315 310 303 304 304 300 294 288 285
90 100 104 105 109 108 107 107 107 107 106 106 110 114 119 120 115 114 125 133 135 130 126 126 123 98 110 123 58 344 310 315 321 308 312 309 305 301 298 296 290 287 286
86 95 102 103 105 106 105 106 104 106 105 108 112 114 118 119 112 113 123 138 132 123 119 125 82 225 170 352 320 309 302 308 313 308 311 308 300 297 298 297 292 288 286
87 97 102 99 104 104 99 98 103 106 105 110 112 111 116 119 118 115 106 116 119 111 109 97 41 338 317 317 317 314 307 306 314 314 312 311 307 305 302 299 298 295 291
89 95 100 98 99 97 94 92 95 102 102 104 108 104 109 109 118 116 109 108 101 98 88 46 350 333 322 318 316 315 313 311 315 318 313 308 307 306 301 298 297 295 291
89 91 91 92 94 92 92 93 95 96 99 100 101 99 99 103 113 117 105 96 90 79 43 6 341 314 318 315 311 309 310 310 311 313 313 307 305 304 301 300 299 297 295
88 88 87 87 89 88 87 88 88 89 93 97 90 93 95 97 109 112 104 86 81 62 27 9 5 355 337 323 313 308 306 307 308 308 310 310 306 306 305 303 300 298 297
89 90 90 91 92 89 82 77 79 87 94 98 94 96 99 99 107 109 95 78 51 21 7 355 348 344 335 328 322 318 314 313 309 307 309 309 307 306 306 304 303 300 298
91 92 92 93 92 88 84 78 77 83 86 87 86 83 86 91 92 86 70 45 13 2 356 351 343 337 333 328 322 318 316 314 312 313 310 307 306 306 303 302 301 300 301
89 92 96 96 95 91 87 82 76 74 77 80 84 82 79 77 71 54 39 358 344 343 343 339 334 330 329 327 324 321 319 316 315 314 314 310 307 304 301 300 300 300 300
84 91 98 98 94 90 85 77 68 66 64 64 68 74 69 60 56 26 348 333 332 335 337 338 332 331 325 321 320 320 319 317 314 314 313 310 309 308 305 302 301 301 301
87 97 98 96 92 84 77 70 61 62 63 62 61 65 68 55 32 3 342 332 332 330 329 328 328 325 324 323 321 319 317 315 312 311 310 308 309 309 308 306 304 302 301
95 102 96 89 87 79 69 60 52 52 54 57 55 53 42 21 2 347 332 327 327 326 325 323 322 321 319 321 320 318 317 315 316 311 309 308 308 307 308 308 306 303 302
Height
5857 5857 5856 5855 5855 5853 5851 5850 5851 5852 5853 5853 5854 5856 5857 5858 5860 5861 5862 5863 5865 5866 5868 5869 5871 5873 5874 5875 5876 5878 5878 5879 5880 5881 5882 5883 5884 5885 5885 5886 5887 5887 5887
5858 5857 5857 5856 5855 5853 5850 5849 5850 5853 5854 5855 5856 5857 5858 5860 5861 5863 5863 5865 5866 5868 5869 5871 5873 5875 5876 5878 5878 5879 5880 5881 5882 5883 5883 5884 5885 5886 5886 5886 5887 5887 5888
5858 5858 5857 5857 5856 5854 5852 5851 5853 5855 5856 5857 5858 5859 5860 5862 5863 5865 5866 5867 5868 5870 5871 5873 5875 5877 5878 5879 5880 5881 5882 5883 5883 5884 5885 5886 5886 5887 5887 5888 5888 5888 5888
5859 5859 5858 5858 5858 5857 5856 5856 5857 5858 5859 5860 5861 5862 5863 5864 5865 5867 5868 5869 5871 5872 5874 5875 5877 5878 5880 5881 5882 5883 5883 5884 5885 5886 5886 5887 5887 5888 5888 5888 5888 5888 5889
5859 5859 5859 5859 5859 5859 5860 5860 5860 5861 5862 5862 5864 5864 5865 5866 5868 5869 5870 5872 5873 5875 5876 5877 5879 5880 5881 5882 5883 5884 5885 5885 5886 5887 5888 5888 5888 5888 5888 5889 5889 5889 5889
5860 5860 5860 5861 5861 5861 5862 5862 5863 5863 5864 5865 5866 5867 5868 5868 5869 5871 5873 5874 5876 5877 5879 5880 5881 5882 5883 5884 5885 5885 5886 5887 5887 5888 5888 5889 5889 5889 5889 5889 5890 5890 5890
5861 5862 5861 5862 5862 5863 5864 5865 5865 5866 5866 5867 5868 5869 5870 5871 5872 5874 5875 5877 5878 5879 5881 5882 5883 5884 5885 5885 5886 5886 5887 5888 5888 5888 5889 5889 5889 5890 5890 5890 5890 5890 5890
5863 5863 5863 5863 5864 5865 5866 5866 5867 5868 5869 5869 5870 5871 5872 5873 5875 5876 5877 5879 5880 5881 5882 5883 5884 5885 5886 5886 5887 5888 5888 5889 5889 5889 5889 5890 5890 5890 5890 5890 5890 5890 5890
5865 5865 5865 5865 5866 5867 5868 5868 5869 5870 5871 5872 5873 5874 5875 5876 5877 5878 5879 5880 5882 5883 5884 5885 5886 5886 5887 5887 5888 5888 5889 5889 5890 5890 5890 5890 5890 5890 5890 5890 5890 5890 5890
5867 5867 5867 5868 5868 5869 5869 5870 5871 5872 5873 5874 5875 5876 5877 5878 5879 5880 5881 5882 5883 5884 5885 5886 5887 5887 5888 5888 5889 5889 5890 5890 5890 5890 5891 5891 5891 5891 5890 5890 5890 5890 5890
5869 5869 5869 5870 5870 5870 5871 5872 5873 5874 5875 5876 5877 5878 5879 5880 5881 5882 5883 5884 5884 5885 5886 5887 5888 5888 5889 5889 5890 5890 5890 5891 5891 5891 5891 5891 5891 5891 5890 5890 5890 5890 5890
5870 5871 5871 5872 5872 5872 5873 5874 5875 5876 5876 5877 5878 5880 5880 5881 5882 5883 5884 5885 5886 5886 5887 5888 5888 5889 5890 5890 5890 5891 5891 5891 5891 5891 5891 5891 5891 5890 5890 5890 5889 5889 5889
5872 5872 5873 5874 5874 5875 5875 5876 5876 5877 5878 5879 5880 5881 5882 5883 5884 5885 5885 5886 5887 5887 5888 5889 5889 5890 5890 5891 5891 5891 5891 5892 5891 5891 5891 5891 5891 5890 5890 5889 5889 5888 5888
5874 5874 5875 5875 5876 5876 5877 5877 5878 5879 5880 5880 5881 5882 5883 5884 5885 5886 5886 5887 5888 5888 5889 5890 5890 5891 5891 5891 5892 5892 5892 5892 5891 5891 5891 5890 5890 5889 5889 5889 5888 5888 5887
5876 5876 5877 5877 5877 5878 5879 5879 5880 5881 5881 5882 5883 5884 5884 5885 5886 5887 5887 5888 5888 5889 5890 5890 5891 5891 5892 5892 5892 5892 5892 5892 5891 5891 5890 5890 5889 5889 5888 5888 5887 5887 5886
5878 5878 5879 5879 5879 5880 5880 5881 5882 5882 5883 5883 5884 5885 5885 5886 5887 5888 5888 5889 5889 5890 5891 5891 5891 5891 5892 5892 5892 5892 5892 5891 5890 5890 5890 5889 5888 5888 5887 5886 5886 5885 5885
5881 5880 5881 5881 5881 5881 5882 5883 5883 5884 5884 5885 5885 5886 5886 5887 5888 5888 5889 5889 5890 5890 5891 5891 5891 5891 5891 5892 5892 5892 5891 5891 5890 5890 5889 5888 5887 5887 5886 5885 5884 5883 5883
5883 5883 5883 5883 5883 5883 5884 5884 5884 5885 5885 5886 5886 5887 5887 5888 5888 5889 5889 5890 5890 5891 5891 5891 5891 5891 5891 5891 5891 5891 5891 5890 5889 5889 5888 5887 5886 5885 5885 5884 5883 5882 5881
5885 5885 5885 5885 5885 5885 5886 5886 5886 5886 5887 5887 5888 5888 5888 5889 5889 5890 5890 5890 5891 5891 5891 5892 5892 5891 5891 5891 5891 5890 5890 5889 5888 5887 5887 5886 5885 5884 5883 5882 5881 5880 5879
5887 5887 5887 5887 5887 5887 5887 5887 5887 5887 5887 5888 5888 5888 5889 5889 5890 5890 5890 5891 5891 5892 5892 5892 5892 5891 5891 5891 5890 5889 5889 5888 5887 5886 5885 5884 5883 5882 5881 5880 5879 5878 5877
5889 5889 5889 5889 5889 5889 5889 5888 5888 5888 5888 5889 5889 5889 5890 5890 5890 5890 5891 5891 5891 5892 5892 5891 5891 5890 5890 5890 5889 5888 5888 5887 5886 5885 5884 5883 5882 5880 5879 5878 5877 5876 5874
5891 5891 5891 5890 5890 5890 5890 5890 5890 5889 5889 5889 5890 5890 5890 5890 5891 5891 5891 5891 5892 5891 5891 5891 5890 5890 5889 5889 5888 5887 5887 5886 5885 5883 5882 5881 5879 5878 5877 5875 5874 5873 5872
5892 5892 5892 5892 5891 5891 5891 5891 5891 5890 5890 5890 5890 5891 5891 5891 5891 5891 5891 5892 5891 5891 5891 5890 5890 5889 5888 5887 5887 5886 5885 5884 5883 5881 5880 5878 5877 5876 5874 5873 5871 5870 5869
5894 5893 5893 5893 5893 5893 5893 5892 5892 5891 5891 5891 5891 5891 5891 5891 5891 5891 5891 5891 5891 5891 5890 5889 5888 5888 5887 5886 5885 5884 5883 5882 5881 5880 5878 5876 5875 5873 5872 5870 5868 5867 5866
5895 5894 5894 5894 5894 5894 5894 5894 5893 5892 5892 5892 5891 5891 5891 5891 5891 5891 5891 5891 5890 5890 5889 5888 5887 5886 5886 5885 5884 5883 5881 5880 5879 5878 5876 5875 5873 5871 5869 5868 5866 5864 5862
5896 5896 5895 5895 5895 5895 5895 5894 5893 5893 5892 5892 5892 5892 5892 5891 5891 5891 5890 5890 5889 5889 5888 5887 5886 5885 5884 5883 5882 5881 5880 5878 5877 5875 5874 5872 5871 5869 5867 5865 5863 5861 5859